This demonstration page uses our WeatherBlox Daily Observations layout. Learn more.

40.92945, -100.16068

Hourly Observations for June 16, 2015

Temp ( °F °C ) Dew Point ( °F °C ) Humidity (%) Winds ( mph kmh ) Pressure ( in mb ) Visibility ( mi km ) Precip ( " mm )
12:15 am 00:15 Clear 60 15.4 54 12.3 82 82 E 7 11 30.15 1021 10 16.0934 N/A
12:35 am 00:35 Clear 59 15.1 54 12.3 83 83 E 7 11 30.15 1021 10 16.0934 N/A
12:55 am 00:55 Clear 59 15 54 12.2 83 83 E 5 7 30.15 1021 10 16.0934 N/A
1:15 am 01:15 Clear 58 14.2 54 12 87 87 E 6 9 30.18 1022 10 16.0934 N/A
1:35 am 01:35 Clear 57 13.7 53 11.7 88 88 E 7 11 30.18 1022 10 16.0934 N/A
1:55 am 01:55 Clear 57 14 54 12 88 88 E 6 9 30.18 1022 10 16.0934 N/A
2:15 am 02:15 Clear 58 14.2 54 12 87 87 ESE 7 11 30.18 1022 10 16.0934 N/A
2:35 am 02:35 Clear 58 14.5 53 11.9 85 85 E 5 7 30.15 1021 10 16.0934 N/A
2:55 am 02:55 Clear 56 13.3 52 11.2 87 87 Calm 30.18 1022 10 16.0934 N/A
3:15 am 03:15 Clear 55 12.6 52 11.2 91 91 Calm 30.18 1022 10 16.0934 N/A
3:35 am 03:35 Clear 54 12.4 52 11.1 92 92 Calm 30.18 1022 10 16.0934 N/A
3:55 am 03:55 Clear 53 11.9 51 10.8 93 93 Calm 30.18 1022 10 16.0934 N/A
4:15 am 04:15 Clear 54 12 52 11 94 94 Calm 30.18 1022 10 16.0934 N/A
4:35 am 04:35 Clear 53 11.7 52 10.9 95 95 Calm 30.18 1022 10 16.0934 N/A
4:55 am 04:55 Clear 53 11.7 51 10.8 94 94 Calm 30.18 1022 10 16.0934 N/A
5:15 am 05:15 Clear 52 11.1 50 10.1 94 94 SE 5 7 30.21 1023 10 16.0934 N/A
5:35 am 05:35 Clear 55 12.8 54 12 95 95 SE 6 9 30.15 1021 10 16.0934 N/A
5:55 am 05:55 Clear 55 12.7 53 11.6 93 93 SSE 5 7 30.15 1021 10 16.0934 N/A
6:15 am 06:15 Sunny 56 13.5 54 12.3 93 93 SSE 5 7 30.15 1021 10 16.0934 N/A
6:35 am 06:35 Sunny 56 13.4 54 12.2 93 93 SE 6 9 30.15 1021 10 16.0934 N/A
6:55 am 06:55 Sunny 58 14.3 55 12.8 91 91 SSE 3 6 30.15 1021 10 16.0934 N/A
7:15 am 07:15 Sunny 59 15 56 13.2 89 89 SE 6 9 30.12 1020 10 16.0934 N/A
7:35 am 07:35 Sunny 60 15.8 57 13.7 87 87 SE 7 11 30.12 1020 10 16.0934 N/A
7:55 am 07:55 Sunny 62 16.8 57 13.9 83 83 SSE 8 13 30.12 1020 10 16.0934 N/A
8:15 am 08:15 Sunny 64 17.5 57 13.7 79 79 SSE 14 22 30.09 1019 10 16.0934 N/A
8:35 am 08:35 Sunny 65 18.3 57 14 76 76 SSE 13 20 30.09 1019 10 16.0934 N/A
8:55 am 08:55 Sunny 66 18.8 58 14.2 75 75 SSE 16 26 30.06 1018 10 16.0934 N/A
9:15 am 09:15 Sunny 65 18.5 58 14.3 77 77 SSE 14 22 30.09 1019 10 16.0934 N/A
9:35 am 09:35 Sunny 66 18.9 58 14.4 75 75 SSE 15 24 30.09 1019 10 16.0934 N/A
9:55 am 09:55 Partly Cloudy 68 20.2 59 15.1 73 73 SSE 14 22 30.09 1019 10 16.0934 N/A
10:15 am 10:15 Mostly Cloudy 69 20.4 60 15.5 74 74 SSE 14 22 30.09 1019 10 16.0934 N/A
10:35 am 10:35 Mostly Cloudy 69 20.6 60 15.8 74 74 SE 14 22 30.06 1018 10 16.0934 N/A
10:55 am 10:55 Mostly Cloudy 69 20.7 62 16.4 77 77 SSE 14 22 30.06 1018 10 16.0934 N/A
11:15 am 11:15 Partly Cloudy 71 21.6 62 16.7 74 74 S 14 22 30.06 1018 10 16.0934 N/A
11:35 am 11:35 Partly Cloudy 71 21.5 63 17 76 76 S 13 20 30.06 1018 10 16.0934 N/A
11:55 am 11:55 Partly Cloudy 71 21.6 63 17 75 75 S 13 20 30.06 1018 10 16.0934 N/A
12:15 pm 12:15 Partly Cloudy 73 22.5 63 17.2 72 72 S 13 20 30.03 1017 10 16.0934 N/A
12:35 pm 12:35 Partly Cloudy 73 22.7 63 17.4 72 72 S 9 15 30.03 1017 10 16.0934 N/A
12:55 pm 12:55 Partly Cloudy 74 23.4 64 17.6 70 70 SSE 14 22 30 1016 10 16.0934 N/A
1:15 pm 13:15 Partly Cloudy 75 24 64 17.8 68 68 SSE 17 28 30 1016 10 16.0934 N/A
1:35 pm 13:35 Partly Cloudy 76 24.3 64 17.9 68 68 SSE 18 30 29.94 1014 10 16.0934 N/A
1:55 pm 13:55 Mostly Cloudy 75 23.8 63 17.3 67 67 S 16 26 29.94 1014 10 16.0934 N/A
2:15 pm 14:15 Mostly Cloudy 76 24.6 64 17.9 66 66 S 13 20 29.94 1014 10 16.0934 N/A
2:35 pm 14:35 Mostly Cloudy 75 24 64 17.5 67 67 S 16 26 29.91 1013 10 16.0934 N/A
2:55 pm 14:55 Mostly Cloudy 76 24.4 64 17.6 66 66 S 15 24 29.91 1013 10 16.0934 N/A
3:15 pm 15:15 Partly Cloudy 77 25.1 65 18.4 66 66 S 16 26 29.91 1013 10 16.0934 N/A
3:35 pm 15:35 Partly Cloudy 78 25.3 63 17.3 61 61 S 13 20 29.91 1013 10 16.0934 N/A
3:55 pm 15:55 Partly Cloudy 78 25.7 64 17.7 61 61 S 14 22 29.91 1013 10 16.0934 N/A
4:15 pm 16:15 Partly Cloudy 79 26.3 65 18.2 61 61 S 12 19 29.91 1013 10 16.0934 N/A
4:35 pm 16:35 Partly Cloudy 78 25.5 63 17.2 60 60 S 15 24 29.91 1013 10 16.0934 N/A
4:55 pm 16:55 Partly Cloudy 79 26.2 63 17.4 58 58 SSE 14 22 29.91 1013 10 16.0934 N/A
5:15 pm 17:15 Partly Cloudy 78 25.6 63 17 59 59 S 15 24 29.91 1013 10 16.0934 N/A
5:35 pm 17:35 Partly Cloudy 78 25.8 63 17.4 60 60 S 13 20 29.91 1013 10 16.0934 N/A
5:55 pm 17:55 Sunny 79 26 63 17.3 59 59 SSE 16 26 29.88 1012 10 16.0934 N/A
6:15 pm 18:15 Sunny 79 26.3 64 17.5 58 58 S 14 22 29.85 1011 10 16.0934 N/A
6:35 pm 18:35 Sunny 79 26.1 62 16.9 57 57 SSE 16 26 29.85 1011 10 16.0934 N/A
6:55 pm 18:55 Sunny 79 26.2 62 16.8 56 56 SSE 16 26 29.85 1011 10 16.0934 N/A
7:15 pm 19:15 Sunny 79 25.9 62 16.8 57 57 SSE 16 26 29.85 1011 10 16.0934 N/A
7:35 pm 19:35 Sunny 77 25.1 62 16.5 59 59 SSE 14 22 29.85 1011 10 16.0934 N/A
7:55 pm 19:55 Sunny 76 24.6 62 16.5 61 61 SSE 12 19 29.85 1011 10 16.0934 N/A
8:15 pm 20:15 Sunny 75 24.1 61 16.3 62 62 SSE 13 20 29.85 1011 10 16.0934 N/A
8:35 pm 20:35 Sunny 75 23.9 62 16.5 63 63 SE 9 15 29.85 1011 10 16.0934 N/A
8:55 pm 20:55 Sunny 74 23.5 61 16.3 64 64 SE 9 15 29.85 1011 10 16.0934 N/A
9:15 pm 21:15 Clear 74 23.5 61 16 63 63 SE 8 13 29.85 1011 10 16.0934 N/A
9:35 pm 21:35 Clear 73 22.6 61 16.2 67 67 SE 9 15 29.88 1012 10 16.0934 N/A
9:55 pm 21:55 Clear 73 22.7 61 16.1 66 66 SE 9 15 29.91 1013 10 16.0934 N/A
10:15 pm 22:15 Clear 73 22.7 61 16 66 66 SE 13 20 29.91 1013 10 16.0934 N/A
10:35 pm 22:35 Clear 73 22.7 61 16 66 66 SE 12 19 29.91 1013 10 16.0934 N/A
10:55 pm 22:55 Clear with Nearby Thunderstorms 73 22.6 61 16 66 66 SSE 12 19 29.91 1013 10 16.0934 N/A

Powered by AerisWeather